This is the latest recevied weather packets stored in our database for station/object KD2VWU. If no packets are shown the sender has not sent any weather packets the latest 10 day(s).
| Time | Temp. | Humidity | Pressure | Rain* | Wind** | Luminosity | Snow |
|---|---|---|---|---|---|---|---|
| 1778099180 | 15° C | 99% | 1003.6 hPa | 1.27 mm | - | - | - |
| 1778098876 | 15.56° C | 99% | 1003.5 hPa | 1.78 mm | - | - | - |
| 1778098573 | 15.56° C | 99% | 1003.6 hPa | 3.05 mm | - | - | - |
| 1778098270 | 15.56° C | 99% | 1003.5 hPa | 3.05 mm | - | - | - |
| 1778097966 | 15.56° C | 99% | 1003.6 hPa | 3.05 mm | - | - | - |
| 1778097663 | 15.56° C | 99% | 1003.8 hPa | 4.83 mm | - | - | - |
| 1778097359 | 15.56° C | 99% | 1004 hPa | 3.05 mm | - | - | - |
| 1778097056 | 15.56° C | 99% | 1003.9 hPa | 3.05 mm | - | - | - |
| 1778096754 | 15.56° C | 99% | 1003.8 hPa | 1.78 mm | - | - | - |
| 1778096450 | 15.56° C | 99% | 1004.1 hPa | 1.78 mm | - | - | - |
| 1778096148 | 15.56° C | 99% | 1004.1 hPa | 3.05 mm | - | - | - |
| 1778095845 | 15.56° C | 99% | 1004.3 hPa | 3.05 mm | - | - | - |
| 1778095542 | 15.56° C | 99% | 1004.3 hPa | 1.78 mm | - | - | - |
| 1778095237 | 15.56° C | 99% | 1004.2 hPa | 1.27 mm | - | - | - |
| 1778094934 | 15.56° C | 99% | 1004.3 hPa | 1.27 mm | - | - | - |
| 1778094630 | 15.56° C | 99% | 1004.3 hPa | 1.78 mm | - | - | - |
| 1778094328 | 15.56° C | 99% | 1004.3 hPa | 1.78 mm | - | - | - |
| 1778094025 | 15.56° C | 99% | 1004.4 hPa | 0 mm | - | - | - |
| 1778093722 | 15.56° C | 99% | 1004.4 hPa | 0 mm | - | - | - |
| 1778093418 | 15.56° C | 99% | 1004.3 hPa | 0 mm | - | - | - |
| 1778093116 | 15.56° C | 99% | 1004.3 hPa | 0 mm | - | - | - |
| 1778092813 | 15.56° C | 99% | 1004.3 hPa | 0 mm | - | - | - |
| 1778092508 | 15.56° C | 99% | 1004.4 hPa | 0 mm | - | - | - |
| 1778092205 | 15.56° C | 99% | 1004.4 hPa | 0 mm | - | - | - |
| 1778091902 | 15.56° C | 99% | 1004.7 hPa | 0 mm | - | - | - |
* Rain latest hour (hover to see other rain measurements)
** Current wind speed in m/s (hover to see current wind gust speed)